ICEYE-X26 (56961 NORAD) Tracking and Keplerian Element Data

This shows tracking and keplerian element data for the satellite.

Feedback or suggestion? Click here.




ElementValue
Catalog56961
NameICEYE-X26
Epoch Orbit9156
Epoch Day34.85547415
Epoch Year2025
RAAN163.1923
Inclination97.5468
Eccentricity0.0002348
Argument of Perigee265.1134
Mean Anonmoly94.9841
Mean Motion15.37051876
Decay Rate0.00037778
L11 56961U 23084AF 25034.85547415 .00037778 00000+0 10404-2 0 9999
L22 56961 97.5468 163.1923 0002348 265.1134 94.9841 15.37051876 91561



Live tracking and technical data element details for ICEYE-X26 (NORAD 56961). ICEYE-X26 can be tracked NOW for your location showing map with azimuth and elevation plus other details from your city location.







IsCatalogInMostPopularTable: catalog: 56961, numindb: 42
Update: records affected: 1



GetName: 56961 ICEYE-X26

Hit Count: updated at: Wed, 18 Jun 2025 05:04:31 GMT